User: anonymous   Login
Location: Asheville, NC
(35.6000°N, 82.5500°W)
Time: 08:24:24
(UTC-04:00)
Language:

STRAND 1 - Orbit

View from above orbital plane
View from above orbital plane
View from above satellite
View from above satellite

Ground track
Ground track

The orbit data is extracted from the following two-line orbital elements,

1 39090U 13009E   18199.13748516 -.00000005  00000-0  13646-4 0  9997
2 39090  98.5192  45.1150 0008686 198.3469 161.7404 14.35033197282260
Epoch (UTC): 18 July 2018 03:17:58
Eccentricity: 0.0008686
inclination: 98.5192°
perigee height: 769 km
apogee height: 781 km
right ascension of ascending node: 45.1150°
argument of perigee: 198.3469°
revolutions per day: 14.35033197
mean anomaly at epoch: 161.7404°
orbit number at epoch: 28226

The dashed part of the orbit path shows where the satellite is in the earth's shadow,  

DLR